This is the latest recevied weather packets stored in our database for station/object W4TJP. If no packets are shown the sender has not sent any weather packets the latest 10 day(s).
| Time | Temp. | Humidity | Pressure | Rain* | Wind** | Luminosity | Snow |
|---|---|---|---|---|---|---|---|
| 1777940415 | 18.33° C | 63% | 1011.5 hPa | 0 mm | - | 3 W/m² | - |
| 1777940111 | 18.89° C | 60% | 1011.6 hPa | 0 mm | - | 6 W/m² | - |
| 1777939808 | 19.44° C | 57% | 1011.5 hPa | 0 mm | - | 7 W/m² | - |
| 1777939506 | 19.44° C | 57% | 1011.6 hPa | 0 mm | - | 9 W/m² | - |
| 1777939203 | 20° C | 56% | 1011.8 hPa | 0 mm | - | 11 W/m² | - |
| 1777938900 | 20° C | 55% | 1011.9 hPa | 0 mm | - | 13 W/m² | - |
| 1777938596 | 20° C | 56% | 1011.9 hPa | 0 mm | - | 15 W/m² | - |
| 1777938294 | 20.56° C | 53% | 1011.7 hPa | 0 mm | - | 17 W/m² | - |
| 1777937990 | 20.56° C | 51% | 1011.8 hPa | 0 mm | - | 20 W/m² | - |
| 1777937686 | 20.56° C | 52% | 1011.9 hPa | 0 mm | - | 21 W/m² | - |
| 1777937383 | 21.11° C | 51% | 1011.8 hPa | 0 mm | - | 21 W/m² | - |
| 1777937080 | 21.67° C | 51% | 1011.7 hPa | 0 mm | - | 23 W/m² | - |
| 1777936777 | 21.67° C | 48% | 1012 hPa | 0 mm | - | 25 W/m² | - |
| 1777936473 | 21.67° C | 50% | 1011.7 hPa | 0 mm | - | 28 W/m² | - |
| 1777936170 | 22.22° C | 47% | 1011.7 hPa | 0 mm | - | 31 W/m² | - |
| 1777935866 | 22.22° C | 46% | 1011.8 hPa | 0 mm | - | 33 W/m² | - |
| 1777935566 | 22.22° C | 47% | 1011.6 hPa | 0 mm | - | 36 W/m² | - |
| 1777935262 | 22.22° C | 47% | 1011.7 hPa | 0 mm | - | 39 W/m² | - |
| 1777934959 | 22.22° C | 48% | 1011.8 hPa | 0 mm | - | 44 W/m² | - |
| 1777934656 | 22.78° C | 45% | 1011.8 hPa | 0 mm | - | 42 W/m² | - |
| 1777934353 | 22.78° C | 44% | 1011.9 hPa | 0 mm | - | 53 W/m² | - |
| 1777934048 | 22.78° C | 46% | 1011.8 hPa | 0 mm | - | 91 W/m² | - |
| 1777933745 | 22.78° C | 46% | 1012 hPa | 0 mm | - | 68 W/m² | - |
| 1777933442 | 22.78° C | 43% | 1011.9 hPa | 0 mm | - | 49 W/m² | - |
| 1777933140 | 23.33° C | 42% | 1011.8 hPa | 0 mm | - | 94 W/m² | - |
* Rain latest hour (hover to see other rain measurements)
** Current wind speed in m/s (hover to see current wind gust speed)